Flag for Turkey Weather past 2 weeks in Istanbul, Turkey

Now
79 °F

Passing clouds.


Feels Like: 81 °F
Forecast: 77 / 88 °F
Wind: 15 mph from Northeast

Location: Istanbul Ataturk Airport

Current Time: Aug 2, 2015 at 11:54:26 PM

Latest Report: Aug 2, 2015 at 11:20 PM


Visibility: N/A

Pressure: 30.04 "Hg

Humidity: 74%

Dew point: 70 °F

Location of IstanbulLocation

Historic Weather in Istanbul — Graph

°F

Istanbul temperature yesterday

Maximum temperature yesterday: 88 °F (at 12:20 PM)
Minimum temperature yesterday: 77 °F (at 3:50 AM)
Average temperature yesterday: 81 °F

Past Weeks' High & Low Weather Summary

 TemperatureHumidityPressure
High97 °F (Jul 28, 4:50 PM)89% (Jul 25, 6:50 AM)30.07 "Hg (Jul 25, 6:50 AM)
Low72 °F (Jul 19, 4:20 AM)20% (Jul 28, 6:50 PM)29.71 "Hg (Jul 26, 7:20 PM)
Average81 °F59%29.85 "Hg
* Reported Jul 18 10:20 PM — Aug 2 10:50 PM, Istanbul, Weather by CustomWeather, © 2015

Note: Actual official high and low records may vary slightly from our data, if they occured in-between our weather recording intervals... More about our weather records

Advertising

Istanbul weather history for previous 24 hours

 ConditionsComfort  
Time TempWeatherWind HumidityBarometerVisibility
10:50 PM
Sun, Aug 2
81 °FPassing clouds.15 mph70%30.04 "HgN/A
10:20 PM81 °FPassing clouds.13 mph70%30.04 "HgN/A
9:50 PM81 °FPassing clouds.14 mph74%30.04 "HgN/A
9:20 PM81 °FPassing clouds.14 mph74%30.04 "HgN/A
8:50 PM82 °FPassing clouds.12 mph70%30.04 "HgN/A
8:20 PM82 °FPassing clouds.15 mph70%30.04 "HgN/A
7:50 PM82 °FPassing clouds.17 mph70%30.01 "HgN/A
7:20 PM82 °FScattered clouds.21 mph70%30.01 "HgN/A
6:50 PM84 °FScattered clouds.16 mph66%30.04 "HgN/A
6:20 PM82 °FScattered clouds.18 mph66%30.04 "HgN/A
5:50 PM82 °FScattered clouds.22 mph66%30.04 "HgN/A
5:20 PM84 °FScattered clouds.22 mph58%30.04 "HgN/A
4:50 PM86 °FPassing clouds.21 mph52%30.04 "HgN/A
4:20 PM84 °FScattered clouds.22 mph55%30.04 "HgN/A
3:50 PM86 °FScattered clouds.17 mph52%30.04 "HgN/A
3:20 PM86 °FScattered clouds.20 mph52%30.04 "HgN/A
2:50 PM86 °FScattered clouds.20 mph55%30.07 "HgN/A
2:20 PM86 °FPartly sunny.18 mph52%30.07 "HgN/A
1:50 PM86 °FPartly sunny.18 mph52%30.07 "HgN/A
1:20 PM86 °FPartly sunny.17 mph55%30.07 "HgN/A
12:50 PM84 °FPartly sunny.21 mph55%30.07 "HgN/A
12:20 PM86 °FPartly sunny.15 mph52%30.07 "HgN/A
11:50 AM84 °FScattered clouds.20 mph55%30.07 "HgN/A
11:20 AM82 °FScattered clouds.17 mph58%30.07 "HgN/A
10:50 AM82 °FScattered clouds.16 mph62%30.07 "HgN/A
10:20 AM82 °FScattered clouds.16 mph62%30.07 "HgN/A
9:50 AM82 °FScattered clouds.15 mph62%30.07 "HgN/A
9:20 AM84 °FScattered clouds.12 mph58%30.04 "HgN/A
8:50 AM81 °FScattered clouds.15 mph66%30.04 "HgN/A
8:20 AM79 °FPassing clouds.14 mph70%30.04 "HgN/A
7:50 AM79 °FPassing clouds.14 mph70%30.04 "HgN/A
6:50 AM77 °FPassing clouds.13 mph74%30.04 "HgN/A
6:20 AM77 °FPassing clouds.12 mph74%30.04 "HgN/A
5:50 AM77 °FPassing clouds.9 mph74%30.04 "HgN/A
5:20 AM77 °FPassing clouds.13 mph74%30.04 "HgN/A
4:50 AM77 °FPassing clouds.10 mph74%30.04 "HgN/A
4:20 AM79 °FPassing clouds.12 mph70%30.04 "HgN/A
3:50 AM77 °FPassing clouds.10 mph74%30.04 "HgN/A
3:20 AM77 °FPassing clouds.12 mph74%30.04 "HgN/A
2:50 AM77 °FPassing clouds.12 mph74%30.04 "HgN/A
2:20 AM77 °FPassing clouds.12 mph74%30.04 "HgN/A
1:50 AM77 °FPassing clouds.13 mph79%30.04 "HgN/A
1:20 AM79 °FPassing clouds.14 mph70%30.04 "HgN/A
12:20 AM79 °FPassing clouds.14 mph74%30.04 "HgN/A
11:50 PM
Sat, Aug 1
79 °FPassing clouds.15 mph74%30.04 "HgN/A
11:20 PM79 °FPassing clouds.14 mph74%30.04 "HgN/A
Weather by CustomWeather, © 2015

See weather overviewHow to use our weather pages